User: anonymous   Login
Location: Caltech
(34.1382°N, 118.1253°W)
Time: 21:33:35
(UTC-07:00)
Language:

Cosmos 2219 Rocket - Orbit

View from above orbital plane
View from above orbital plane
View from above satellite
View from above satellite

Ground track
Ground track

The orbit data is extracted from the following two-line orbital elements,

1 22220U 92076B   16182.14069572  .00000153  00000-0  10103-3 0  9991
2 22220  71.0009  80.2793 0010770  89.4565  14.0633 14.16397773220928
Epoch (UTC): 30 June 2016 03:22:36
Eccentricity: 0.0010770
inclination: 71.0009°
perigee height: 830 km
apogee height: 845 km
right ascension of ascending node: 80.2793°
argument of perigee: 89.4565°
revolutions per day: 14.16397773
mean anomaly at epoch: 14.0633°
orbit number at epoch: 22092

The dashed part of the orbit path shows where the satellite is in the earth's shadow,  

DLR